Regional Weather Roundup
Issued by NWS

Home | Current Version | Previous Version | Graphics & Text | Print | Product List | Glossary On
Versions: 1 2 3 4 5 6 7 8 9 10 11 12 13 14 15 16 17 18 19 20 21 22 23 24 25 26 27 28 29 30 31 32 33 34 35 36 37 38 39 40 41 42 43 44 45 46 47 48 49 50
000
ASUS43 KDMX 270107
RWRIA

WEATHER ROUNDUP FOR IOWA
NATIONAL WEATHER SERVICE DES MOINES IA
800 PM CDT SUN APR 26 2015

NOTE: "FAIR" INDICATES FEW OR NO CLOUDS BELOW 12,000 FEET WITH NO
SIGNIFICANT WEATHER AND/OR OBSTRUCTIONS TO VISIBILITY.

* - THESE STATIONS ARE NOT NWS STATIONS...THUS NOT UNDER NWS
QUALITY CONTROL.  THEY ALSO DO NOT REPORT WEATHER SUCH
AS PRECIPITATION OR FOG.

IAZ001>003-012>014-020>022-031>034-043>046-270200-
   NORTHWEST IOWA

CITY           SKY/WX    TMP DP  RH WIND       PRES   REMARKS
CARROLL *      CLEAR     57  32  38 E9        30.03R
CHEROKEE *     CLEAR     61  32  33 NE5       30.03R
DENISON *      CLEAR     57  32  38 E6        30.02R
LE MARS *      CLEAR     64  30  27 E9        30.03S
ORANGE CITY *  CLEAR     63  30  29 E6        30.04R
SHELDON *      CLEAR     61  28  29 NE9       30.03R
SIOUX CITY     CLEAR     63  30  28 E6        30.02R
SPENCER        CLEAR     60  31  33 NE10      30.04R
STORM LAKE *   CLEAR     59  32  36 E10       30.04R
$$

IAZ055>058-069>071-079>083-090>094-270200-
   SOUTHWEST IOWA

CITY           SKY/WX    TMP DP  RH WIND       PRES   REMARKS
ATLANTIC *     CLEAR     57  32  38 NE6       30.03R
AUDUBON *      CLEAR     55  34  44 E6        30.04R
CLARINDA *     CLEAR     59  32  36 NE8G15    30.01S
COUNCIL BLFS * CLEAR     57  37  47 NE7       30.02S
CRESTON *      CLEAR     54  34  47 NE10      30.02R
HARLAN  *      CLEAR     57  34  41 E7        30.06R
LAMONI         CLEAR     55  31  39 NE10      30.00R
RED OAK *      CLEAR     57  36  44 NE9       30.01S
SHENANDOAH *   CLEAR     59  34  38 NE10      30.00S
$$

IAZ047>049-059>061-072>074-084-270200-
   CENTRAL IOWA

CITY           SKY/WX    TMP DP  RH WIND       PRES   REMARKS
AMES           CLEAR     56  27  32 NE7       30.03R
ANKENY *       CLEAR     55  30  38 NE7       30.03R
CHARITON *     CLEAR     54  34  47 NE8       30.02R
DES MOINES     CLEAR     59  25  27 E9        30.03R
GRINNELL*      CLEAR     52  36  54 NE6       30.04R
KNOXVILLE *    CLEAR     55  32  41 NE6       30.01R
MARSHALLTOWN   CLEAR     54  29  38 NE9       30.03R
PELLA *        CLEAR     55  36  47 E3        30.04R
PERRY *          N/A     57  30  35 NE8       30.03S
$$

IAZ004>006-015-016-023>025-035-036-270200-
   NORTH CENTRAL IOWA

CITY           SKY/WX    TMP DP  RH WIND       PRES   REMARKS
ALGONA *       CLEAR     59  30  33 E8        30.06R
CLARION *      CLEAR     57  27  30 NE10      30.05R
ESTHERVILLE    CLEAR     57  28  33 NE10      30.05R
FORT DODGE *   CLEAR     57  30  35 NE6       30.05R
MASON CITY     CLEAR     53  29  39 NE9       30.07R
FOREST CITY *  CLEAR     54  28  37 NE6       30.06R
IOWA FALLS *     N/A     55  28  35 NE6       30.06R
$$

IAZ007>011-017>019-026>030-037>042-050>054-066-270200-
   NORTHEAST IOWA

CITY           SKY/WX    TMP DP  RH WIND       PRES   REMARKS
CEDAR RAPIDS   CLEAR     54  32  43 N6        30.02R
CHARLES CITY * CLEAR     54  30  40 N8        30.06R
CLINTON *      PTCLDY    50  34  53 NE6       30.05R
DECORAH *      CLEAR     55  25  30 N5        30.04S
DUBUQUE        CLEAR     53  28  38 NE3       30.02S
MONTICELLO *   CLEAR     55  30  38 CALM      30.03R
OELWEIN *      CLEAR     54  28  37 N9        30.05R
WATERLOO       CLEAR     53  27  36 NE8       30.04R
$$

IAZ064-065-067-068-078-270200-
   EAST CENTRAL IOWA

CITY           SKY/WX    TMP DP  RH WIND       PRES   REMARKS
DAVENPORT      CLEAR     52  33  48 NE6       30.03R
IOWA CITY      CLEAR     54  31  41 NE7       30.04R
MT. PLEASANT * CLEAR     52  34  50 NE8       30.02R
MUSCATINE *    CLEAR     54  34  47 NE6       30.03R
QUAD CITIES    CLEAR     56  30  37 N3        30.01R
$$

IAZ062-063-075>077-085>089-095>099-270200-
   SOUTHEAST IOWA

CITY           SKY/WX    TMP DP  RH WIND       PRES   REMARKS
BURLINGTON     CLEAR     53  34  48 NE8       30.01R
FAIRFIELD *    CLEAR     52  34  50 NE8       30.02R
FORT MADISON *   N/A     54  34  47 NE3       30.02R
KEOKUK *       CLEAR     55  32  41 NE5       30.00R
OSKALOOSA *      N/A     54  34  47 NE8       30.03R
CENTERVILLE *  CLEAR     54  36  50 NE6       30.02R
OTTUMWA        CLEAR     53  34  48 NE7       30.02R
WASHINGTON *   CLEAR     54  37  54 NE7       30.03R
$$

ABBREVIATIONS USED IN REMARKS
   TC - TEMPERATURES IN CELSIUS
  WCI - WIND CHILL INDEX
   HX - HEAT INDEX
  VSB - VISIBILITY
$$




USA.gov is the U.S. government's official web portal to all federal, state and local government web resources and services.